| time (UTC) | temp F | wind direction | speed knots | gust knots | rain 1hr in | rain 24hr in | rain mn in | humidity % | barometer mb |
| 20260506201431 | 89 | 167 | 1.7 | 13.9 | 0.00 | 0.00 | 0.00 | 8 | 1019.4 |
| 20260506200818 | 88 | 194 | 2.6 | 12.2 | 0.00 | 0.00 | 0.00 | 7 | 1019.4 |
| 20260506200230 | 89 | 220 | 0.9 | 13.9 | 0.00 | 0.00 | 0.00 | 6 | 1019.4 |
| 20260506195618 | 89 | 169 | 0.9 | 12.2 | 0.00 | 0.00 | 0.00 | 7 | 1019.5 |
| 20260506195018 | 88 | 158 | 2.6 | 13.9 | 0.00 | 0.00 | 0.00 | 7 | 1019.6 |
| 20260506194418 | 87 | 231 | 1.7 | 15.6 | 0.00 | 0.00 | 0.00 | 7 | 1019.6 |
| 20260506193843 | 88 | 226 | 3.5 | 16.5 | 0.00 | 0.00 | 0.00 | 8 | 1019.9 |
| 20260506193218 | 88 | 245 | 1.7 | 14.8 | 0.00 | 0.00 | 0.00 | 7 | 1019.9 |
| 20260506192618 | 88 | 225 | 3.5 | 12.2 | 0.00 | 0.00 | 0.00 | 8 | 1019.9 |
| 20260506192019 | 87 | 166 | 0.0 | 12.2 | 0.00 | 0.00 | 0.00 | 6 | 1020.1 |
| 20260506191418 | 88 | 250 | 2.6 | 14.8 | 0.00 | 0.00 | 0.00 | 7 | 1020.2 |
| 20260506190818 | 87 | 222 | 0.0 | 8.7 | 0.00 | 0.00 | 0.00 | 8 | 1020.1 |
| 20260506190218 | 87 | 167 | 0.0 | 15.6 | 0.00 | 0.00 | 0.00 | 8 | 1020.2 |
| 20260506185618 | 88 | 250 | 1.7 | 12.2 | 0.00 | 0.00 | 0.00 | 8 | 1020.2 |
| 20260506185018 | 88 | 249 | 6.1 | 11.3 | 0.00 | 0.00 | 0.00 | 8 | 1020.2 |
| 20260506184418 | 88 | 161 | 0.9 | 11.3 | 0.00 | 0.00 | 0.00 | 10 | 1020.3 |
| 20260506183818 | 86 | 260 | 0.0 | 11.3 | 0.00 | 0.00 | 0.00 | 8 | 1020.3 |
| 20260506183218 | 87 | 254 | 5.2 | 12.2 | 0.00 | 0.00 | 0.00 | 9 | 1020.5 |
| 20260506182618 | 86 | 245 | 3.5 | 7.8 | 0.00 | 0.00 | 0.00 | 10 | 1020.6 |
| 20260506182018 | 86 | 333 | 0.9 | 7.8 | 0.00 | 0.00 | 0.00 | 8 | 1020.6 |
| 20260506181418 | 86 | 277 | 0.0 | 15.6 | 0.00 | 0.00 | 0.00 | 8 | 1020.7 |
| 20260506180818 | 86 | 179 | 1.7 | 8.7 | 0.00 | 0.00 | 0.00 | 8 | 1020.8 |
| 20260506180218 | 85 | 166 | 6.1 | 12.2 | 0.00 | 0.00 | 0.00 | 8 | 1020.8 |
| 20260506175618 | 86 | 252 | 0.9 | 13.0 | 0.00 | 0.00 | 0.00 | 8 | 1020.8 |
| 20260506175018 | 85 | 196 | 1.7 | 14.8 | 0.00 | 0.00 | 0.00 | 8 | 1020.8 |
| 20260506174418 | 85 | 235 | 3.5 | 13.9 | 0.00 | 0.00 | 0.00 | 7 | 1020.6 |
| 20260506173818 | 86 | 222 | 1.7 | 13.9 | 0.00 | 0.00 | 0.00 | 7 | 1020.8 |
| 20260506173218 | 85 | 216 | 0.0 | 10.4 | 0.00 | 0.00 | 0.00 | 7 | 1020.8 |
| 20260506172618 | 85 | 231 | 1.7 | 12.2 | 0.00 | 0.00 | 0.00 | 8 | 1020.9 |
| 20260506172018 | 85 | 248 | 0.0 | 12.2 | 0.00 | 0.00 | 0.00 | 9 | 1021.0 |
| 20260506171419 | 83 | 145 | 0.0 | 5.2 | 0.00 | 0.00 | 0.00 | 9 | 1021.0 |
| 20260506170818 | 83 | 233 | 1.7 | 4.3 | 0.00 | 0.00 | 0.00 | 9 | 1021.2 |
| 20260506170218 | 83 | 116 | 3.5 | 13.0 | 0.00 | 0.00 | 0.00 | 9 | 1021.2 |
| 20260506165618 | 81 | 73 | 2.6 | 11.3 | 0.00 | 0.00 | 0.00 | 10 | 1021.2 |
| 20260506165017 | 82 | 56 | 2.6 | 6.1 | 0.00 | 0.00 | 0.00 | 10 | 1021.0 |
| 20260506164418 | 82 | 86 | 1.7 | 6.1 | 0.00 | 0.00 | 0.00 | 9 | 1021.2 |
| 20260506163818 | 82 | 114 | 0.0 | 6.1 | 0.00 | 0.00 | 0.00 | 9 | 1021.2 |
| 20260506163218 | 81 | 180 | 0.0 | 11.3 | 0.00 | 0.00 | 0.00 | 9 | 1021.2 |
| 20260506162618 | 81 | 147 | 5.2 | 9.6 | 0.00 | 0.00 | 0.00 | 11 | 1021.0 |
| 20260506162018 | 82 | 132 | 2.6 | 7.8 | 0.00 | 0.00 | 0.00 | 10 | 1021.2 |
| 20260506161430 | 82 | 130 | 0.0 | 5.2 | 0.00 | 0.00 | 0.00 | 9 | 1021.2 |
| 20260506160830 | 82 | 119 | 0.0 | 4.3 | 0.00 | 0.00 | 0.00 | 9 | 1021.2 |
| 20260506160218 | 81 | 271 | 0.0 | 6.1 | 0.00 | 0.00 | 0.00 | 10 | 1021.2 |
| 20260506155618 | 80 | 284 | 1.7 | 3.5 | 0.00 | 0.00 | 0.00 | 11 | 1021.2 |
| 20260506155018 | 79 | 305 | 0.0 | 3.5 | 0.00 | 0.00 | 0.00 | 11 | 1021.2 |
| 20260506154418 | 79 | 99 | 0.0 | 4.3 | 0.00 | 0.00 | 0.00 | 11 | 1021.3 |
| 20260506153830 | 78 | 184 | 0.0 | 5.2 | 0.00 | 0.00 | 0.00 | 12 | 1021.3 |
| 20260506153218 | 78 | 78 | 2.6 | 5.2 | 0.00 | 0.00 | 0.00 | 12 | 1021.3 |
| 20260506152618 | 77 | 237 | 0.0 | 2.6 | 0.00 | 0.00 | 0.00 | 13 | 1021.5 |
| 20260506152018 | 76 | 151 | 0.9 | 4.3 | 0.00 | 0.00 | 0.00 | 13 | 1021.5 |
| 20260506151418 | 76 | 52 | 0.0 | 6.1 | 0.00 | 0.00 | 0.00 | 13 | 1021.3 |
| 20260506150818 | 75 | 117 | 0.0 | 5.2 | 0.00 | 0.00 | 0.00 | 15 | 1021.5 |
| 20260506150218 | 74 | 111 | 0.9 | 4.3 | 0.00 | 0.00 | 0.00 | 13 | 1021.5 |
| 20260506145618 | 73 | 129 | 1.7 | 3.5 | 0.00 | 0.00 | 0.00 | 17 | 1021.5 |
| 20260506145030 | 72 | 60 | 0.0 | 3.5 | 0.00 | 0.00 | 0.00 | 16 | 1021.6 |
| 20260506144418 | 71 | 91 | 1.7 | 4.3 | 0.00 | 0.00 | 0.00 | 21 | 1021.6 |
| 20260506143818 | 70 | 90 | 0.0 | 4.3 | 0.00 | 0.00 | 0.00 | 23 | 1021.6 |
| 20260506143218 | 69 | 118 | 0.0 | 4.3 | 0.00 | 0.00 | 0.00 | 27 | 1021.8 |
| 20260506142618 | 68 | 109 | 0.0 | 4.3 | 0.00 | 0.00 | 0.00 | 25 | 1021.8 |
| 20260506142043 | 68 | 135 | 0.9 | 3.5 | 0.00 | 0.00 | 0.00 | 26 | 1021.7 |
| 20260506141418 | 67 | 252 | 0.0 | 2.6 | 0.00 | 0.00 | 0.00 | 25 | 1021.7 |
| 20260506140818 | 66 | 265 | 0.0 | 1.7 | 0.00 | 0.00 | 0.00 | 25 | 1021.7 |
| 20260506140218 | 64 | 337 | 0.0 | 3.5 | 0.00 | 0.00 | 0.00 | 31 | 1021.6 |
| 20260506135618 | 63 | 331 | 0.9 | 2.6 | 0.00 | 0.00 | 0.00 | 32 | 1021.6 |
| 20260506135018 | 62 | 296 | 0.0 | 2.6 | 0.00 | 0.00 | 0.00 | 35 | 1021.7 |
| 20260506134418 | 61 | 308 | 0.0 | 2.6 | 0.00 | 0.00 | 0.00 | 35 | 1021.7 |
| 20260506133818 | 61 | 284 | 0.0 | 2.6 | 0.00 | 0.00 | 0.00 | 35 | 1021.5 |
| 20260506133218 | 60 | 291 | 0.0 | 1.7 | 0.00 | 0.00 | 0.00 | 37 | 1021.5 |
| 20260506132630 | 58 | 289 | 0.0 | 2.6 | 0.00 | 0.00 | 0.00 | 38 | 1021.5 |
| 20260506132031 | 56 | 309 | 0.0 | 3.5 | 0.00 | 0.00 | 0.00 | 41 | 1021.4 |
| 20260506131418 | 54 | 294 | 0.0 | 2.6 | 0.00 | 0.00 | 0.00 | 46 | 1021.5 |
| 20260506130818 | 52 | 311 | 0.0 | 4.3 | 0.00 | 0.00 | 0.00 | 49 | 1021.3 |
| 20260506130218 | 50 | 280 | 0.0 | 0.9 | 0.00 | 0.00 | 0.00 | 55 | 1021.2 |
| 20260506125617 | 47 | 253 | 0.0 | 2.6 | 0.00 | 0.00 | 0.00 | 65 | 1021.1 |
| 20260506125018 | 45 | 274 | 0.0 | 2.6 | 0.00 | 0.00 | 0.00 | 64 | 1021.1 |
| 20260506124418 | 44 | 256 | 0.0 | 2.6 | 0.00 | 0.00 | 0.00 | 68 | 1021.1 |
| 20260506123818 | 43 | 225 | 0.0 | 2.6 | 0.00 | 0.00 | 0.00 | 77 | 1021.1 |
| 20260506123230 | 42 | 252 | 0.0 | 0.0 | 0.00 | 0.00 | 0.00 | 74 | 1021.1 |
| 20260506122618 | 42 | 279 | 0.0 | 0.0 | 0.00 | 0.00 | 0.00 | 72 | 1021.0 |
| 20260506122018 | 43 | 279 | 0.0 | 0.0 | 0.00 | 0.00 | 0.00 | 71 | 1020.9 |
| 20260506121418 | 45 | 279 | 0.0 | 0.0 | 0.00 | 0.00 | 0.00 | 67 | 1020.9 |
| 20260506120818 | 46 | 279 | 0.0 | 2.6 | 0.00 | 0.00 | 0.00 | 62 | 1020.9 |
| 20260506120218 | 47 | 277 | 0.0 | 6.1 | 0.00 | 0.00 | 0.00 | 56 | 1020.8 |
| 20260506115617 | 46 | 271 | 1.7 | 5.2 | 0.00 | 0.00 | 0.00 | 59 | 1020.8 |
| 20260506115017 | 46 | 293 | 1.7 | 5.2 | 0.00 | 0.00 | 0.00 | 60 | 1020.7 |
| 20260506114418 | 45 | 286 | 1.7 | 5.2 | 0.00 | 0.00 | 0.00 | 62 | 1020.7 |
| 20260506113817 | 45 | 281 | 1.7 | 4.3 | 0.00 | 0.00 | 0.00 | 63 | 1020.7 |
| 20260506113218 | 43 | 301 | 0.9 | 5.2 | 0.00 | 0.00 | 0.00 | 67 | 1020.7 |
| 20260506112617 | 43 | 311 | 0.0 | 3.5 | 0.00 | 0.00 | 0.00 | 69 | 1020.7 |
| 20260506112018 | 42 | 279 | 0.0 | 3.5 | 0.00 | 0.00 | 0.00 | 70 | 1020.7 |
| 20260506111417 | 44 | 318 | 0.0 | 2.6 | 0.00 | 0.00 | 0.00 | 65 | 1020.7 |
| 20260506110830 | 44 | 13 | 0.0 | 3.5 | 0.00 | 0.00 | 0.00 | 62 | 1020.7 |
| 20260506110217 | 43 | 276 | 1.7 | 3.5 | 0.00 | 0.00 | 0.00 | 68 | 1020.7 |
| 20260506105655 | 42 | 265 | 1.7 | 3.5 | 0.00 | 0.00 | 0.00 | 70 | 1020.5 |
| 20260506105017 | 43 | 251 | 0.0 | 3.5 | 0.00 | 0.00 | 0.00 | 72 | 1020.4 |
| 20260506104443 | 44 | 326 | 0.0 | 3.5 | 0.00 | 0.00 | 0.00 | 67 | 1020.4 |
| 20260506103818 | 45 | 132 | 0.0 | 2.6 | 0.00 | 0.00 | 0.00 | 63 | 1020.4 |
| 20260506103217 | 44 | 335 | 1.7 | 4.3 | 0.00 | 0.00 | 0.00 | 65 | 1020.4 |
| 20260506102618 | 43 | 291 | 0.0 | 5.2 | 0.00 | 0.00 | 0.00 | 69 | 1020.4 |
| 20260506102017 | 43 | 288 | 2.6 | 3.5 | 0.00 | 0.00 | 0.00 | 72 | 1020.3 |
| 20260506101418 | 44 | 15 | 0.0 | 0.0 | 0.00 | 0.00 | 0.00 | 68 | 1020.2 |
| 20260506100830 | 46 | 15 | 0.0 | 3.5 | 0.00 | 0.00 | 0.00 | 62 | 1020.1 |
| 20260506100218 | 47 | 265 | 1.7 | 6.1 | 0.00 | 0.00 | 0.00 | 57 | 1020.1 |
| 20260506095618 | 45 | 274 | 1.7 | 4.3 | 0.00 | 0.00 | 0.00 | 63 | 1020.0 |
| 20260506095042 | 45 | 273 | 0.9 | 2.6 | 0.00 | 0.00 | 0.00 | 65 | 1019.8 |
| 20260506094417 | 44 | 273 | 0.9 | 2.6 | 0.00 | 0.00 | 0.00 | 66 | 1019.7 |
| 20260506093817 | 44 | 271 | 0.9 | 3.5 | 0.00 | 0.00 | 0.00 | 71 | 1019.8 |
| 20260506093242 | 46 | 312 | 0.0 | 2.6 | 0.00 | 0.00 | 0.00 | 62 | 1019.6 |
| 20260506092617 | 46 | 313 | 0.9 | 3.5 | 0.00 | 0.00 | 0.00 | 59 | 1019.6 |
| 20260506092018 | 45 | 289 | 1.7 | 2.6 | 0.00 | 0.00 | 0.00 | 62 | 1019.6 |
| 20260506091418 | 43 | 300 | 0.0 | 2.6 | 0.00 | 0.00 | 0.00 | 68 | 1019.6 |
| 20260506090818 | 43 | 266 | 1.7 | 2.6 | 0.00 | 0.00 | 0.00 | 70 | 1019.6 |
| 20260506090217 | 43 | 248 | 0.0 | 2.6 | 0.00 | 0.00 | 0.00 | 72 | 1019.4 |
| 20260506085618 | 44 | 318 | 0.0 | 2.6 | 0.00 | 0.00 | 0.00 | 67 | 1019.4 |
| 20260506085018 | 43 | 297 | 0.0 | 2.6 | 0.00 | 0.00 | 0.00 | 69 | 1019.3 |
| 20260506084418 | 44 | 220 | 0.0 | 2.6 | 0.00 | 0.00 | 0.00 | 70 | 1019.4 |
| 20260506083830 | 44 | 296 | 0.9 | 2.6 | 0.00 | 0.00 | 0.00 | 71 | 1019.4 |
| 20260506083217 | 46 | 209 | 0.0 | 0.0 | 0.00 | 0.00 | 0.00 | 62 | 1019.3 |
| 20260506082643 | 47 | 191 | 0.0 | 0.0 | 0.00 | 0.00 | 0.00 | 59 | 1019.4 |
| 20260506082017 | 49 | 315 | 0.0 | 0.0 | 0.00 | 0.00 | 0.00 | 55 | 1019.4 |
| 20260506081417 | 51 | 322 | 0.0 | 2.6 | 0.00 | 0.00 | 0.00 | 50 | 1019.5 |
| 20260506080818 | 52 | 254 | 0.0 | 3.5 | 0.00 | 0.00 | 0.00 | 44 | 1019.4 |
| 20260506080218 | 51 | 321 | 0.0 | 3.5 | 0.00 | 0.00 | 0.00 | 47 | 1019.4 |
| 20260506073217 | 53 | 313 | 0.9 | 3.5 | 0.00 | 0.00 | 0.00 | 39 | 1019.6 |
| 20260506072618 | 53 | 323 | 1.7 | 3.5 | 0.00 | 0.00 | 0.00 | 41 | 1019.6 |
| 20260506072018 | 54 | 302 | 0.0 | 4.3 | 0.00 | 0.00 | 0.00 | 39 | 1019.5 |
| 20260506071418 | 55 | 318 | 0.0 | 3.5 | 0.00 | 0.00 | 0.00 | 36 | 1019.5 |
| 20260506070818 | 54 | 306 | 0.9 | 7.0 | 0.00 | 0.00 | 0.00 | 36 | 1019.5 |
| 20260506070218 | 54 | 293 | 3.5 | 6.1 | 0.00 | 0.00 | 0.00 | 41 | 1019.5 |
| 20260506062017 | 55 | 279 | 2.6 | 5.2 | 0.00 | 0.00 | 0.00 | 39 | 1019.8 |
| 20260506061430 | 54 | 306 | 1.7 | 5.2 | 0.00 | 0.00 | 0.00 | 39 | 1019.7 |
| 20260506060830 | 56 | 284 | 0.0 | 2.6 | 0.00 | 0.00 | 0.00 | 34 | 1019.8 |
| 20260506060217 | 57 | 278 | 0.9 | 5.2 | 0.00 | 0.00 | 0.00 | 34 | 1019.8 |
| 20260506050818 | 54 | 299 | 2.6 | 5.2 | 0.00 | 0.00 | 0.00 | 46 | 1019.6 |
| 20260506050230 | 54 | 304 | 1.7 | 2.6 | 0.00 | 0.00 | 0.00 | 45 | 1019.8 |
| 20260506045017 | 56 | 286 | 0.0 | 2.6 | 0.00 | 0.00 | 0.00 | 42 | 1019.6 |
| 20260506044417 | 55 | 279 | 0.9 | 2.6 | 0.00 | 0.00 | 0.00 | 37 | 1019.5 |
| 20260506043830 | 53 | 289 | 0.9 | 3.5 | 0.00 | 0.00 | 0.00 | 44 | 1019.5 |
| 20260506043218 | 52 | 308 | 1.7 | 2.6 | 0.00 | 0.00 | 0.00 | 53 | 1019.5 |
| 20260506042617 | 54 | 297 | 1.7 | 2.6 | 0.00 | 0.00 | 0.00 | 44 | 1019.5 |
| 20260506042018 | 56 | 297 | 1.7 | 1.7 | 0.00 | 0.00 | 0.00 | 34 | 1019.3 |
| 20260506041417 | 56 | 289 | 0.0 | 2.6 | 0.00 | 0.00 | 0.00 | 39 | 1019.3 |
| 20260506040817 | 55 | 288 | 1.7 | 3.5 | 0.00 | 0.00 | 0.00 | 47 | 1019.2 |
| 20260506040219 | 57 | 144 | 0.0 | 3.5 | 0.00 | 0.00 | 0.00 | 41 | 1019.2 |
| 20260506035617 | 57 | 144 | 0.0 | 3.5 | 0.00 | 0.00 | 0.00 | 40 | 1019.2 |
| 20260506035017 | 57 | 317 | 0.0 | 1.7 | 0.00 | 0.00 | 0.00 | 47 | 1019.0 |
| 20260506034418 | 59 | 230 | 0.0 | 1.7 | 0.00 | 0.00 | 0.00 | 41 | 1018.9 |
| 20260506033817 | 62 | 230 | 0.0 | 1.7 | 0.00 | 0.00 | 0.00 | 31 | 1018.9 |
| 20260506033218 | 64 | 164 | 0.0 | 1.7 | 0.00 | 0.00 | 0.00 | 27 | 1018.8 |
| 20260506032618 | 67 | 164 | 0.0 | 3.5 | 0.00 | 0.00 | 0.00 | 25 | 1018.6 |
| 20260506032030 | 70 | 328 | 1.7 | 5.2 | 0.00 | 0.00 | 0.00 | 23 | 1018.6 |
| 20260506031417 | 70 | 316 | 1.7 | 6.1 | 0.00 | 0.00 | 0.00 | 22 | 1018.5 |
| 20260506030818 | 71 | 316 | 1.7 | 6.1 | 0.00 | 0.00 | 0.00 | 20 | 1018.4 |
| 20260506030218 | 72 | 309 | 2.6 | 7.0 | 0.00 | 0.00 | 0.00 | 20 | 1018.4 |
| 20260506025617 | 73 | 303 | 3.5 | 7.8 | 0.00 | 0.00 | 0.00 | 19 | 1018.4 |
| 20260506025017 | 73 | 327 | 2.6 | 8.7 | 0.00 | 0.00 | 0.00 | 19 | 1018.4 |
| 20260506024443 | 73 | 334 | 2.6 | 9.6 | 0.00 | 0.00 | 0.00 | 19 | 1018.2 |
| 20260506023818 | 74 | 331 | 1.7 | 7.8 | 0.00 | 0.00 | 0.00 | 18 | 1018.1 |
| 20260506023218 | 74 | 314 | 1.7 | 9.6 | 0.00 | 0.00 | 0.00 | 18 | 1018.1 |
| 20260506022617 | 73 | 350 | 1.7 | 7.8 | 0.00 | 0.00 | 0.00 | 18 | 1018.1 |
| 20260506022018 | 73 | 303 | 3.5 | 7.8 | 0.00 | 0.00 | 0.00 | 21 | 1018.0 |
| 20260506021417 | 73 | 285 | 1.7 | 6.1 | 0.00 | 0.00 | 0.00 | 20 | 1017.9 |
| 20260506020818 | 74 | 318 | 2.6 | 7.8 | 0.00 | 0.00 | 0.00 | 19 | 1017.9 |
| 20260506020217 | 75 | 331 | 2.6 | 7.0 | 0.00 | 0.00 | 0.00 | 18 | 1017.8 |
| 20260506015618 | 76 | 350 | 1.7 | 9.6 | 0.00 | 0.00 | 0.00 | 18 | 1017.7 |
| 20260506015030 | 77 | 328 | 3.5 | 9.6 | 0.00 | 0.00 | 0.00 | 17 | 1017.6 |
| 20260506014418 | 77 | 338 | 2.6 | 10.4 | 0.00 | 0.00 | 0.00 | 16 | 1017.6 |
| 20260506013817 | 77 | 321 | 2.6 | 8.7 | 0.00 | 0.00 | 0.00 | 16 | 1017.5 |
| 20260506013217 | 77 | 313 | 0.9 | 7.8 | 0.00 | 0.00 | 0.00 | 17 | 1017.4 |
| 20260506012618 | 77 | 330 | 2.6 | 7.8 | 0.00 | 0.00 | 0.00 | 16 | 1017.3 |
| 20260506012017 | 78 | 319 | 3.5 | 12.2 | 0.00 | 0.00 | 0.00 | 16 | 1017.2 |
| 20260506011430 | 78 | 337 | 1.7 | 10.4 | 0.00 | 0.00 | 0.00 | 17 | 1017.2 |
| 20260506010817 | 79 | 326 | 3.5 | 10.4 | 0.00 | 0.00 | 0.00 | 17 | 1017.1 |
| 20260506010217 | 79 | 319 | 2.6 | 9.6 | 0.00 | 0.00 | 0.00 | 16 | 1017.0 |
| 20260506005617 | 79 | 6 | 2.6 | 6.1 | 0.00 | 0.00 | 0.00 | 16 | 1017.0 |
| 20260506005018 | 80 | 298 | 1.7 | 7.0 | 0.00 | 0.00 | 0.00 | 15 | 1017.0 |
| 20260506004430 | 80 | 312 | 2.6 | 7.0 | 0.00 | 0.00 | 0.00 | 15 | 1017.0 |
| 20260506003817 | 82 | 304 | 1.7 | 6.1 | 0.00 | 0.00 | 0.00 | 15 | 1017.0 |
| 20260506003217 | 83 | 271 | 0.9 | 8.7 | 0.00 | 0.00 | 0.00 | 13 | 1016.9 |
| 20260506002617 | 85 | 292 | 1.7 | 7.8 | 0.00 | 0.00 | 0.00 | 7 | 1016.9 |
| 20260506002018 | 86 | 241 | 2.6 | 7.0 | 0.00 | 0.00 | 0.00 | 7 | 1016.9 |
| 20260506001417 | 87 | 233 | 1.7 | 8.7 | 0.00 | 0.00 | 0.00 | 6 | 1016.9 |
| 20260506000817 | 87 | 280 | 0.0 | 7.0 | 0.00 | 0.00 | 0.00 | 6 | 1016.9 |
| 20260506000219 | 88 | 262 | 2.6 | 7.8 | 0.00 | 0.00 | 0.00 | 7 | 1016.8 |
| 20260505235618 | 88 | 238 | 1.7 | 9.6 | 0.00 | 0.00 | 0.00 | 5 | 1016.7 |
| 20260505235018 | 88 | 263 | 0.0 | 7.0 | 0.00 | 0.00 | 0.00 | 7 | 1016.7 |
| 20260505234430 | 88 | 218 | 1.7 | 7.8 | 0.00 | 0.00 | 0.00 | 6 | 1016.7 |
| 20260505233817 | 88 | 146 | 0.0 | 9.6 | 0.00 | 0.00 | 0.00 | 6 | 1016.8 |
| 20260505233218 | 89 | 263 | 3.5 | 12.2 | 0.00 | 0.00 | 0.00 | 6 | 1016.7 |
| 20260505232617 | 89 | 301 | 2.6 | 10.4 | 0.00 | 0.00 | 0.00 | 8 | 1016.7 |
| 20260505232030 | 89 | 262 | 2.6 | 13.9 | 0.00 | 0.00 | 0.00 | 8 | 1016.7 |
| 20260505231418 | 90 | 256 | 1.7 | 7.8 | 0.00 | 0.00 | 0.00 | 6 | 1016.7 |
| 20260505230818 | 89 | 192 | 2.6 | 14.8 | 0.00 | 0.00 | 0.00 | 6 | 1016.8 |
| 20260505230217 | 90 | 266 | 0.9 | 11.3 | 0.00 | 0.00 | 0.00 | 7 | 1016.7 |
| 20260505225630 | 90 | 196 | 1.7 | 11.3 | 0.00 | 0.00 | 0.00 | 7 | 1016.8 |
| 20260505225030 | 90 | 285 | 3.5 | 13.0 | 0.00 | 0.00 | 0.00 | 8 | 1016.7 |
| 20260505224417 | 91 | 222 | 0.0 | 7.8 | 0.00 | 0.00 | 0.00 | 7 | 1016.8 |
| 20260505223818 | 91 | 218 | 1.7 | 8.7 | 0.00 | 0.00 | 0.00 | 7 | 1016.9 |
| 20260505223244 | 90 | 292 | 1.7 | 9.6 | 0.00 | 0.00 | 0.00 | 7 | 1016.9 |
| 20260505222630 | 90 | 176 | 1.7 | 13.0 | 0.00 | 0.00 | 0.00 | 6 | 1016.9 |
| 20260505222017 | 90 | 175 | 1.7 | 14.8 | 0.00 | 0.00 | 0.00 | 7 | 1017.1 |
| 20260505221508 | 90 | 298 | 4.3 | 13.9 | 0.00 | 0.00 | 0.00 | 9 | 1016.9 |
| 20260505220830 | 91 | 137 | 1.7 | 10.4 | 0.00 | 0.00 | 0.00 | 7 | 1017.1 |
| 20260505220218 | 90 | 222 | 1.7 | 12.2 | 0.00 | 0.00 | 0.00 | 7 | 1017.1 |
| 20260505215617 | 90 | 197 | 2.6 | 11.3 | 0.00 | 0.00 | 0.00 | 8 | 1017.2 |
| 20260505215017 | 89 | 190 | 2.6 | 12.2 | 0.00 | 0.00 | 0.00 | 9 | 1017.2 |
| 20260505214417 | 89 | 216 | 0.9 | 7.8 | 0.00 | 0.00 | 0.00 | 9 | 1017.3 |
| 20260505213817 | 90 | 232 | 1.7 | 9.6 | 0.00 | 0.00 | 0.00 | 9 | 1017.5 |
| 20260505213218 | 89 | 230 | 1.7 | 12.2 | 0.00 | 0.00 | 0.00 | 10 | 1017.5 |
| 20260505212618 | 89 | 228 | 0.0 | 16.5 | 0.00 | 0.00 | 0.00 | 9 | 1017.6 |
| 20260505212017 | 90 | 232 | 1.7 | 10.4 | 0.00 | 0.00 | 0.00 | 10 | 1017.7 |
| 20260505211418 | 89 | 250 | 2.6 | 11.3 | 0.00 | 0.00 | 0.00 | 11 | 1017.7 |
| 20260505210842 | 88 | 166 | 5.2 | 14.8 | 0.00 | 0.00 | 0.00 | 10 | 1017.7 |
| 20260505210218 | 89 | 144 | 2.6 | 13.0 | 0.00 | 0.00 | 0.00 | 11 | 1018.0 |
| 20260505205617 | 88 | 176 | 1.7 | 13.0 | 0.00 | 0.00 | 0.00 | 10 | 1018.1 |
| 20260505205018 | 89 | 222 | 2.6 | 11.3 | 0.00 | 0.00 | 0.00 | 11 | 1018.1 |
| 20260505204417 | 89 | 242 | 0.9 | 13.9 | 0.00 | 0.00 | 0.00 | 11 | 1018.1 |
| 20260505203817 | 89 | 239 | 5.2 | 11.3 | 0.00 | 0.00 | 0.00 | 11 | 1018.4 |
| 20260505203218 | 89 | 198 | 2.6 | 14.8 | 0.00 | 0.00 | 0.00 | 11 | 1018.4 |
| 20260505202618 | 88 | 250 | 1.7 | 12.2 | 0.00 | 0.00 | 0.00 | 12 | 1018.6 |
| 20260505202017 | 90 | 164 | 0.0 | 11.3 | 0.00 | 0.00 | 0.00 | 12 | 1018.6 |